TimeEST,TemperatureF,Dew PointF,Humidity,Sea Level PressureIn,VisibilityMPH,Wind Direction,Wind SpeedMPH,Gust SpeedMPH,PrecipitationIn,Events,Conditions,WindDirDegrees,DateUTC
12:56 AM,38.8,26.1,60,29.89,10.0,SSE,8.1,-,N/A,,Clear,150,2013-02-19 05:56:00
1:56 AM,39.9,27.1,60,29.88,10.0,SSE,6.9,-,N/A,,Partly Cloudy,160,2013-02-19 06:56:00
2:48 AM,41.0,33.8,76,29.79,4.0,SSW,15.0,32.2,0.02,Rain,Light Rain,200,2013-02-19 07:48:00
2:56 AM,41.0,34.9,79,29.86,4.0,SSW,8.1,25.3,0.03,Rain,Light Rain,200,2013-02-19 07:56:00
3:36 AM,41.0,35.6,81,29.77,7.0,South,12.7,25.3,0.02,Rain,Light Rain,180,2013-02-19 08:36:00
3:44 AM,39.2,35.6,87,29.75,5.0,South,11.5,-,0.02,Rain,Light Rain,180,2013-02-19 08:44:00
4:56 AM,38.8,34.9,86,29.79,10.0,South,10.4,-,0.02,Rain,Light Rain,180,2013-02-19 09:56:00
5:56 AM,37.9,34.9,89,29.76,5.0,Variable,6.9,-,0.02,Rain,Light Rain,0,2013-02-19 10:56:00
6:56 AM,37.9,34.9,89,29.74,8.0,South,10.4,-,0.01,Rain,Light Rain,180,2013-02-19 11:56:00
7:56 AM,37.9,36.0,93,29.73,4.0,South,10.4,-,0.01,,Overcast,180,2013-02-19 12:56:00
8:56 AM,38.8,36.9,93,29.72,5.0,South,12.7,-,0.00,,Overcast,190,2013-02-19 13:56:00
9:56 AM,39.9,36.9,89,29.70,4.0,South,11.5,23.0,0.03,Rain,Light Rain,190,2013-02-19 14:56:00
10:13 AM,39.2,37.4,93,29.64,2.5,SW,10.4,-,0.01,Rain,Light Rain,220,2013-02-19 15:13:00
10:20 AM,39.2,37.4,93,29.65,3.0,SSW,10.4,-,0.01,Rain,Light Rain,210,2013-02-19 15:20:00
11:56 AM,36.9,31.1,80,29.74,10.0,WSW,18.4,-,0.00,,Overcast,240,2013-02-19 16:56:00
12:56 PM,32.9,27.1,79,29.76,10.0,WSW,17.3,-,N/A,,Overcast,250,2013-02-19 17:56:00
1:56 PM,30.0,23.0,75,29.79,10.0,WSW,25.3,38.0,0.00,,Overcast,240,2013-02-19 18:56:00
2:56 PM,30.0,22.1,72,29.81,7.0,WSW,17.3,-,0.00,Snow,Light Snow,240,2013-02-19 19:56:00
3:56 PM,30.0,19.0,64,29.83,10.0,SW,20.7,-,0.00,,Mostly Cloudy,230,2013-02-19 20:56:00
4:34 PM,28.4,21.2,74,29.78,5.0,WSW,13.8,-,0.00,Snow,Light Snow,250,2013-02-19 21:34:00
4:56 PM,27.1,22.1,81,29.86,1.8,WSW,10.4,-,0.00,Snow,Light Snow,240,2013-02-19 21:56:00
5:00 PM,26.6,21.2,80,29.79,3.0,SW,9.2,-,0.00,Snow,Light Snow,230,2013-02-19 22:00:00
5:29 PM,28.4,21.2,74,29.80,2.5,SW,9.2,-,0.00,Snow,Light Snow,220,2013-02-19 22:29:00
5:32 PM,26.6,21.2,80,29.80,1.0,SW,10.4,-,0.00,Snow,Light Snow,230,2013-02-19 22:32:00
5:35 PM,26.6,23.0,86,29.80,0.8,WSW,10.4,-,0.00,Snow,Light Snow,250,2013-02-19 22:35:00
5:39 PM,26.6,23.0,86,29.81,0.2,SW,15.0,-,0.00,Fog-Snow,Heavy Snow,230,2013-02-19 22:39:00
5:46 PM,26.6,23.0,86,29.81,0.2,WSW,15.0,-,0.00,Fog-Snow,Light Snow,250,2013-02-19 22:46:00
5:56 PM,26.1,20.1,78,29.90,5.0,WSW,20.7,36.8,0.00,Snow,Light Snow,240,2013-02-19 22:56:00
6:04 PM,24.8,17.6,74,29.83,8.0,WSW,28.8,35.7,0.00,Snow,Light Snow,240,2013-02-19 23:04:00
6:17 PM,24.8,15.8,69,29.84,10.0,WSW,18.4,-,0.00,,Mostly Cloudy,240,2013-02-19 23:17:00
8:23 PM,24.8,19.4,80,29.88,2.5,SW,23.0,31.1,0.00,Snow,Light Snow,230,2013-02-20 01:23:00
8:33 PM,23.0,17.6,80,29.89,6.0,WSW,19.6,-,0.00,Snow,Light Snow,250,2013-02-20 01:33:00
8:56 PM,21.0,14.0,74,29.99,10.0,WSW,17.3,-,0.00,Snow,Light Snow,240,2013-02-20 01:56:00
9:56 PM,20.1,14.0,77,29.99,5.0,West,11.5,-,0.00,Snow,Light Snow,270,2013-02-20 02:56:00
10:56 PM,19.0,16.2,89,30.01,1.0,West,9.2,-,0.00,Snow,Light Snow,260,2013-02-20 03:56:00
11:05 PM,19.4,15.8,86,29.92,1.2,West,9.2,-,0.00,Snow,Light Snow,260,2013-02-20 04:05:00
11:09 PM,19.4,15.8,86,29.92,1.5,WSW,11.5,-,0.00,Snow,Light Snow,250,2013-02-20 04:09:00
11:22 PM,19.4,15.8,86,29.92,1.5,West,16.1,-,0.00,Snow,Light Snow,260,2013-02-20 04:22:00
11:27 PM,17.6,15.8,93,29.93,1.0,WNW,9.2,-,0.00,Snow,Light Snow,290,2013-02-20 04:27:00
11:30 PM,17.6,15.8,93,29.93,0.8,West,9.2,-,0.00,Snow,Light Snow,280,2013-02-20 04:30:00
11:41 PM,17.6,14.0,86,29.93,1.2,West,13.8,-,0.00,Snow,Light Snow,270,2013-02-20 04:41:00
11:45 PM,17.6,14.0,86,29.94,1.5,West,10.4,-,0.00,Snow,Light Snow,270,2013-02-20 04:45:00
11:56 PM,18.1,13.1,81,30.02,5.0,West,11.5,-,0.00,Snow,Light Snow,260,2013-02-20 04:56:00